Location: Sperry Observatory
(40.6664°N, 74.3236°W)
Time: 03:24:43
(UTC-04:00)

Amateur Radio Satellites - All Passes

Search period start: 02 July 2016 02:54
Search period end: 03 July 2016 02:54
Location: Sperry Observatory, 40.6664°N, 74.3236°W

Satellite Date Start Highest point End Downlink Frequencies (MHz)
Time Altitude Azimuth
BEESAT 3 02 Jul 03:05:20 03:08:25 22° 313° (NW) 03:11:32 437.485
PCSat 02 Jul 03:24:51 03:28:40 19° 316° (NW) 03:32:30 145.827
Cosmos 2504 02 Jul 03:25:01 03:30:05 17° 284° (WNW) 03:35:03 435.465 / 435.565
AIST 2 02 Jul 03:27:04 03:30:03 20° 111° (ESE) 03:33:03 435.215
Oscar 19 02 Jul 03:29:37 03:33:58 29° 293° (WNW) 03:38:19 437.125/150
AO-7 02 Jul 03:32:26 03:38:58 25° 94° (E) 03:45:25 29.400- 29.500
O/OREOS (USA 219) 02 Jul 03:34:00 03:37:21 20° 303° (WNW) 03:40:43 437.305
BEESAT 2 02 Jul 03:51:51 03:54:12 15° 317° (NW) 03:56:34 435.950
AO-85 02 Jul 03:57:38 03:58:24 10° 33° (NNE) 03:59:10 145.980
SWISSCUBE 02 Jul 03:58:04 03:59:42 12° 270° (W) 04:01:20 437.505
ITAMSAT 1 02 Jul 03:59:50 04:05:06 86° 105° (ESE) 04:10:19 435.822/435.867
Cosmos 2499 02 Jul 04:03:30 04:07:46 14° 57° (ENE) 04:11:54 435.465 / 435.565
KKS-1 02 Jul 04:05:43 04:10:07 76° 257° (WSW) 04:14:34 437.445
Gurwin Techsat 1B 02 Jul 04:17:27 04:21:46 26° 295° (WNW) 04:26:03 435.225
AIST 1 02 Jul 04:22:58 04:27:12 64° 265° (W) 04:31:24
MOZHAYETS 4 02 Jul 04:23:59 04:28:31 55° 260° (W) 04:33:06
CUBESAT XI-V 02 Jul 04:26:27 04:29:47 20° 65° (ENE) 04:33:06 437.345
STARS 02 Jul 04:27:17 04:31:38 88° 259° (W) 04:36:02 437.465
GONETS M04 02 Jul 04:48:03 04:56:11 41° 73° (ENE) 05:04:19
PHONESAT 2.4 02 Jul 05:00:56 05:03:19 21° 153° (SSE) 05:05:41 2401.200-2431.200
AIST 2 02 Jul 05:04:25 05:08:16 38° 308° (NW) 05:12:09 435.215
HORYU 2 02 Jul 05:22:26 05:26:34 35° 98° (E) 05:30:41 437.375
AO-7 02 Jul 05:24:01 05:32:22 72° 292° (WNW) 05:40:39 29.400- 29.500
AO-85 02 Jul 05:35:28 05:39:57 60° 55° (NE) 05:44:03 145.980
ITAMSAT 1 02 Jul 05:41:34 05:43:48 13° 301° (WNW) 05:46:03 435.822/435.867
NOAA 15 02 Jul 05:46:16 05:48:41 13° 90° (E) 05:51:07 137.62
STRAND 1 02 Jul 05:46:27 05:47:39 11° 58° (ENE) 05:48:52 437.568
Cosmos 2499 02 Jul 05:53:59 06:02:44 71° 80° (E) 06:10:51 435.465 / 435.565
CUBESAT XI-V 02 Jul 06:02:21 06:06:50 44° 262° (W) 06:11:19 437.345
LilacSat-2 02 Jul 06:08:29 06:09:50 11° 91° (E) 06:11:10 437.200
CUSAT 1 02 Jul 06:24:08 06:30:31 31° 92° (E) 06:36:00 437.405
Cubesat XI-IV 02 Jul 06:35:58 06:40:39 30° 96° (E) 06:45:18 437.490
PHONESAT 2.4 02 Jul 06:36:35 06:39:37 68° 168° (SSE) 06:42:41 2401.200-2431.200
ISS 02 Jul 06:41:18 06:43:39 19° 132° (SE) 06:46:01 145.825
GONETS M04 02 Jul 06:44:57 06:52:58 43° 273° (W) 07:01:02
HORYU 2 02 Jul 06:59:25 07:02:54 22° 294° (WNW) 07:06:23 437.375
NOAA 18 02 Jul 07:02:14 07:07:42 55° 101° (E) 07:13:08 137.9125
CUTE-I 02 Jul 07:08:36 07:13:56 60° 101° (E) 07:19:13 437.470
BRITE-PL 02 Jul 07:17:29 07:21:38 70° 284° (WNW) 07:25:52 437.365/2234.400
AO-85 02 Jul 07:17:56 07:19:43 12° 254° (WSW) 07:21:27 145.980
AO-7 02 Jul 07:18:52 07:23:42 17° 312° (NW) 07:28:31 29.400- 29.500
STRAND 1 02 Jul 07:20:50 07:25:59 83° 75° (ENE) 07:31:10 437.568
PRISM 02 Jul 07:21:20 07:22:24 11° 62° (ENE) 07:23:30 437.425
DANDE 02 Jul 07:21:47 07:29:41 47° 92° (E) 07:36:46 436.750
NOAA 15 02 Jul 07:23:45 07:29:00 73° 286° (WNW) 07:34:12 137.62
GOMX 1 02 Jul 07:30:21 07:34:36 70° 101° (ESE) 07:39:05 467.674
LilacSat-2 02 Jul 07:40:38 07:44:24 49° 286° (WNW) 07:48:09 437.200
Cosmos 2499 02 Jul 07:48:30 07:54:54 24° 280° (W) 08:01:03 435.465 / 435.565
CUSAT 1 02 Jul 08:05:16 08:12:27 47° 283° (WNW) 08:18:25 437.405
DOVE 4 02 Jul 08:10:10 08:14:36 85° 102° (ESE) 08:19:17 437.250
PHONESAT 2.4 02 Jul 08:13:08 08:16:12 85° 185° (S) 08:19:17 2401.200-2431.200
Cubesat XI-IV 02 Jul 08:15:52 08:20:43 35° 292° (WNW) 08:25:32 437.490
ISS 02 Jul 08:16:42 08:19:52 47° 328° (NNW) 08:23:03 145.825
HO-68 02 Jul 08:18:23 08:24:51 34° 97° (E) 08:31:14 435.675
CANX-2 02 Jul 08:22:08 08:25:57 31° 96° (E) 08:29:43 2200.000
CINEMA 3 02 Jul 08:36:14 08:40:44 48° 99° (E) 08:45:24 145.822/145.860
SEEDS 02 Jul 08:37:54 08:41:34 28° 95° (E) 08:45:14 437.485
CUTE 1.7 + AOD 2 02 Jul 08:41:07 08:45:13 44° 98° (E) 08:49:17 437.475
NOAA 18 02 Jul 08:43:50 08:47:55 21° 298° (WNW) 08:52:00 137.9125
UWE-3 02 Jul 08:46:52 08:49:02 13° 90° (E) 08:51:13 435.000/436.395/437.385
PCSat 02 Jul 08:46:56 08:48:13 11° 36° (NE) 08:49:30 145.827
CUTE-I 02 Jul 08:49:51 08:53:28 19° 298° (WNW) 08:57:05 437.470
PRISM 02 Jul 08:53:02 08:57:09 67° 258° (WSW) 09:01:17 437.425
M-CUBED/EXP-1 PRIME 02 Jul 09:02:56 09:04:06 11° 97° (E) 09:05:17 437.505
STRAND 1 02 Jul 09:04:20 09:05:45 11° 271° (W) 09:07:11 437.568
DANDE 02 Jul 09:04:52 09:12:33 39° 286° (WNW) 09:19:26 436.750
AAUSAT CUBESAT 2 02 Jul 09:05:14 09:08:58 32° 97° (E) 09:12:40 437.432
GOMX 1 02 Jul 09:11:06 09:12:13 11° 297° (WNW) 09:13:19 467.674
TIGRISAT 02 Jul 09:16:06 09:18:11 13° 62° (ENE) 09:20:18 435.000
UNISAT 6 02 Jul 09:21:55 09:24:38 16° 64° (ENE) 09:27:25 437.425
RS-15 02 Jul 09:26:26 09:32:33 16° 96° (E) 09:38:47 29.354- 29.394
CUBEBUG 2 02 Jul 09:42:31 09:47:13 75° 103° (ESE) 09:51:57 437.445
COMPASS 1 02 Jul 09:43:10 09:47:21 71° 285° (WNW) 09:51:28 437.405
BEESAT 3 02 Jul 09:44:44 09:47:48 21° 47° (NE) 09:50:52 437.485
PHONESAT 2.4 02 Jul 09:49:50 09:52:40 34° 201° (SSW) 09:55:30 2401.200-2431.200
ZACube-1 02 Jul 09:50:57 09:55:18 41° 98° (E) 09:59:38 437.345
AUBIESAT-1 02 Jul 09:52:06 09:55:50 33° 103° (ESE) 09:59:46 437.475
Oscar 11 02 Jul 09:52:52 09:57:03 44° 99° (E) 10:01:12 145.826/435.025
ISS 02 Jul 09:54:57 09:56:55 15° 347° (NNW) 09:58:53 145.825
CANX-2 02 Jul 09:58:17 10:01:38 22° 292° (WNW) 10:04:57 2200.000
ANTELSAT 02 Jul 09:59:58 10:04:01 40° 71° (ENE) 10:08:10 437.575/2403.000
HO-68 02 Jul 10:05:52 10:12:39 46° 294° (WNW) 10:19:26 435.675
FUNcube-1 02 Jul 10:06:05 10:10:36 57° 100° (E) 10:15:06 145.935
Cosmos 2491 02 Jul 10:11:37 10:17:51 21° 64° (ENE) 10:24:03 435.465 / 435.565
SEEDS 02 Jul 10:13:46 10:17:09 23° 292° (WNW) 10:20:29 437.485
CINEMA 3 02 Jul 10:14:23 10:17:32 18° 294° (WNW) 10:20:46 145.822/145.860
DELFI C3 02 Jul 10:17:30 10:21:11 35° 98° (E) 10:24:49 145.870
CUTE 1.7 + AOD 2 02 Jul 10:18:01 10:20:42 16° 295° (WNW) 10:23:21 437.475
UWE-3 02 Jul 10:21:16 10:25:51 62° 285° (WNW) 10:30:27 435.000/436.395/437.385
QB50P1 02 Jul 10:23:47 10:25:26 12° 63° (ENE) 10:27:06 145.935-145.965
POPSAT HIP 1 02 Jul 10:27:06 10:29:02 13° 63° (ENE) 10:30:58 437.405
PCSat 02 Jul 10:27:31 10:32:52 55° 57° (ENE) 10:38:10 145.827
HUMSAT D 02 Jul 10:28:26 10:31:54 23° 94° (E) 10:35:20 437.325/437.525
BEESAT 2 02 Jul 10:30:31 10:34:10 33° 51° (NE) 10:37:47 435.950
M-CUBED/EXP-1 PRIME 02 Jul 10:34:52 10:38:51 64° 290° (WNW) 10:43:09 437.505
DUCHIFAT 1 02 Jul 10:36:04 10:38:24 15° 64° (ENE) 10:40:45 145.980
QB50P2 02 Jul 10:39:20 10:42:18 19° 66° (ENE) 10:45:18 145.880/145.840
AAUSAT CUBESAT 2 02 Jul 10:41:09 10:44:15 21° 293° (WNW) 10:47:20 437.432
POLYITAN 1 02 Jul 10:41:55 10:44:56 19° 66° (ENE) 10:47:57 437.675
TIGRISAT 02 Jul 10:50:05 10:54:20 59° 260° (W) 10:58:43 435.000
UNISAT 6 02 Jul 10:56:48 11:00:57 46° 261° (W) 11:05:15 437.425
JAS-2 02 Jul 11:10:49 11:15:42 20° 61° (ENE) 11:20:16 435.910
BUGSAT 1 02 Jul 11:14:13 11:16:47 17° 66° (ENE) 11:19:22 437.445
CUBEBUG 2 02 Jul 11:21:21 11:23:13 12° 298° (WNW) 11:25:06 437.445
BEESAT 3 02 Jul 11:21:56 11:25:36 36° 244° (WSW) 11:29:14 437.485
ESTCUBE 1 02 Jul 11:26:40 11:29:44 18° 93° (E) 11:32:46 437.505/2401.250
AUBIESAT-1 02 Jul 11:26:59 11:30:08 22° 296° (WNW) 11:33:26 437.475
ZACube-1 02 Jul 11:27:58 11:31:16 20° 294° (WNW) 11:34:35 437.345
Oscar 11 02 Jul 11:30:01 11:32:49 17° 295° (WNW) 11:35:37 145.826/435.025
RS-15 02 Jul 11:31:22 11:42:40 75° 117° (ESE) 11:54:38 29.354- 29.394
ISS 02 Jul 11:32:45 11:34:25 13° 8° (N) 11:36:05 145.825
ANTELSAT 02 Jul 11:37:58 11:40:54 18° 268° (W) 11:43:54 437.575/2403.000
FUNcube-1 02 Jul 11:43:45 11:46:21 15° 296° (WNW) 11:48:57 145.935
AIST 2 02 Jul 11:48:23 11:50:53 15° 43° (NE) 11:53:23 435.215
CUBEBUG 1 02 Jul 11:48:53 11:52:06 20° 94° (E) 11:55:18 437.445
YUBILEINY 02 Jul 11:50:44 11:58:24 36° 85° (E) 12:06:06 435.215
NANOSAT C BR1 02 Jul 11:51:00 11:55:10 75° 258° (WSW) 11:59:23 145.865
DELFI C3 02 Jul 11:53:08 11:55:46 17° 293° (WNW) 11:58:21 145.870
QB50P1 02 Jul 11:56:34 12:00:41 60° 259° (W) 12:04:51 145.935-145.965
POPSAT HIP 1 02 Jul 12:00:14 12:04:20 56° 260° (W) 12:08:28 437.405
O/OREOS (USA 219) 02 Jul 12:03:31 12:08:01 75° 68° (ENE) 12:12:30 437.305
HUMSAT D 02 Jul 12:03:45 12:07:31 30° 290° (WNW) 12:11:15 437.325/437.525
Cosmos 2491 02 Jul 12:07:01 12:15:46 83° 265° (W) 12:24:29 435.465 / 435.565
VELOX 1 02 Jul 12:07:44 12:11:35 29° 96° (E) 12:15:24 145.980
BEESAT 2 02 Jul 12:08:43 12:11:49 22° 248° (WSW) 12:14:53 435.950
DUCHIFAT 1 02 Jul 12:09:40 12:13:42 47° 261° (W) 12:17:45 145.980
PCSat 02 Jul 12:11:54 12:15:49 21° 254° (WSW) 12:19:43 145.827
QB50P2 02 Jul 12:13:59 12:17:51 36° 262° (W) 12:21:45 145.880/145.840
POLYITAN 1 02 Jul 12:16:39 12:20:29 35° 263° (W) 12:24:22 437.675
Cosmos 2504 02 Jul 12:17:50 12:22:05 15° 75° (ENE) 12:26:27 435.465 / 435.565
SPROUT 02 Jul 12:19:51 12:22:45 18° 93° (E) 12:25:39 437.525
UKube-1 02 Jul 12:26:00 12:29:43 28° 96° (E) 12:33:25 .
BUGSAT 1 02 Jul 12:48:08 12:51:52 37° 262° (W) 12:55:37 437.445
AISAT 02 Jul 12:48:43 12:53:08 89° 117° (ESE) 12:57:32 437.250
JAS-2 02 Jul 12:52:30 13:00:04 83° 255° (WSW) 13:06:55 435.910
DX 1 02 Jul 12:53:33 12:57:54 73° 103° (ESE) 13:02:13 434.975-435.025
50 SAT 02 Jul 12:59:11 13:02:47 54° 286° (WNW) 13:06:21 437.505
ESTCUBE 1 02 Jul 13:02:29 13:06:43 42° 289° (WNW) 13:10:55 437.505/2401.250
Oscar 19 02 Jul 13:06:32 13:11:27 48° 71° (ENE) 13:16:23 437.125/150
ISS 02 Jul 13:08:38 13:11:38 32° 27° (NNE) 13:14:37 145.825
TISAT 1 02 Jul 13:24:01 13:27:20 22° 95° (E) 13:30:37 437.305
CUBEBUG 1 02 Jul 13:24:32 13:28:27 34° 290° (WNW) 13:32:22 437.445
AIST 2 02 Jul 13:25:40 13:29:47 66° 241° (WSW) 13:33:54 435.215
ITAMSAT 1 02 Jul 13:40:32 13:43:45 17° 61° (ENE) 13:46:59 435.822/435.867
VELOX 1 02 Jul 13:44:20 13:47:56 25° 292° (WNW) 13:51:31 145.980
RS-15 02 Jul 13:45:38 13:56:15 39° 323° (NW) 14:07:25 29.354- 29.394
YUBILEINY 02 Jul 13:46:33 13:54:53 49° 285° (WNW) 14:03:20 435.215
SPROUT 02 Jul 13:54:51 13:58:51 39° 289° (WNW) 14:02:50 437.525
Gurwin Techsat 1B 02 Jul 13:57:40 14:02:55 64° 73° (ENE) 14:08:11 435.225
UKube-1 02 Jul 14:02:06 14:05:39 25° 292° (WNW) 14:09:11 .
Cosmos 2504 02 Jul 14:05:41 14:13:53 81° 95° (E) 14:22:40 435.465 / 435.565
Cosmos 2491 02 Jul 14:06:43 14:11:08 15° 284° (WNW) 14:15:34 435.465 / 435.565
SO-50 02 Jul 14:17:52 14:21:54 26° 112° (ESE) 14:25:56 436.795
SWISSCUBE 02 Jul 14:18:09 14:21:31 19° 93° (E) 14:24:50 437.505
AO-7 02 Jul 14:31:01 14:38:18 35° 59° (ENE) 14:45:37 29.400- 29.500
DX 1 02 Jul 14:32:18 14:33:28 11° 299° (WNW) 14:34:39 434.975-435.025
JAS-2 02 Jul 14:42:01 14:45:44 14° 271° (W) 14:49:18 435.910
BEESAT 02 Jul 14:42:16 14:46:27 29° 96° (E) 14:50:37 436.000
ISS 02 Jul 14:45:07 14:48:03 31° 224° (SW) 14:50:58 145.825
ITUPSAT 1 02 Jul 14:46:11 14:50:29 32° 97° (E) 14:54:44 437.325
Oscar 19 02 Jul 14:47:18 14:51:00 20° 267° (W) 14:54:44 437.125/150
TISAT 1 02 Jul 14:59:17 15:02:59 30° 290° (WNW) 15:06:41 437.305
ITAMSAT 1 02 Jul 15:17:29 15:22:40 65° 258° (WSW) 15:27:53 435.822/435.867
Gurwin Techsat 1B 02 Jul 15:40:10 15:43:17 16° 269° (W) 15:46:26 435.225
SWISSCUBE 02 Jul 15:54:56 15:59:30 45° 289° (WNW) 16:04:02 437.505
SO-50 02 Jul 15:57:36 16:02:12 40° 309° (NW) 16:06:48 436.795
KKS-1 02 Jul 15:57:37 16:01:00 21° 94° (E) 16:04:20 437.445
Cosmos 2504 02 Jul 16:02:13 16:08:21 22° 296° (WNW) 16:14:48 435.465 / 435.565
RS-15 02 Jul 16:04:56 16:13:38 22° 357° (N) 16:22:32 29.354- 29.394
STARS 02 Jul 16:18:00 16:20:54 17° 93° (E) 16:23:48 437.465
MOZHAYETS 4 02 Jul 16:19:25 16:23:39 34° 97° (E) 16:27:51
BEESAT 02 Jul 16:20:03 16:24:10 29° 292° (WNW) 16:28:15 436.000
HORYU 2 02 Jul 16:20:11 16:24:05 31° 69° (ENE) 16:28:01 437.375
AO-7 02 Jul 16:22:35 16:30:42 55° 258° (WSW) 16:38:54 29.400- 29.500
ITUPSAT 1 02 Jul 16:24:09 16:28:11 27° 293° (WNW) 16:32:12 437.325
NOAA 18 02 Jul 16:51:02 16:53:52 14° 58° (ENE) 16:56:43 137.9125
AIST 1 02 Jul 16:51:30 16:55:48 75° 95° (E) 17:00:05
BRITE-PL 02 Jul 16:52:10 16:54:26 13° 64° (ENE) 16:56:38 437.365/2234.400
CUTE-I 02 Jul 16:53:46 16:56:09 13° 59° (ENE) 16:58:32 437.470
NOAA 15 02 Jul 17:05:20 17:09:23 23° 64° (ENE) 17:13:24 137.62
KKS-1 02 Jul 17:33:34 17:37:38 35° 290° (WNW) 17:41:41 437.445
GONETS M04 02 Jul 17:48:38 17:56:48 48° 89° (E) 18:04:58
STARS 02 Jul 17:53:16 17:57:26 42° 289° (WNW) 18:01:36 437.465
MOZHAYETS 4 02 Jul 17:56:57 18:00:37 24° 293° (WNW) 18:04:16
HORYU 2 02 Jul 17:57:05 18:00:39 24° 265° (W) 18:04:14 437.375
Cubesat XI-IV 02 Jul 17:57:28 18:02:34 47° 71° (ENE) 18:07:43 437.490
CUBESAT XI-V 02 Jul 17:59:01 18:03:27 45° 99° (E) 18:07:51 437.345
DANDE 02 Jul 18:05:25 18:08:21 17° 64° (ENE) 18:10:51 436.750
RS-15 02 Jul 18:20:51 18:31:35 33° 32° (NNE) 18:42:18 29.354- 29.394
LilacSat-2 02 Jul 18:21:51 18:25:36 74° 77° (ENE) 18:29:26 437.200
BRITE-PL 02 Jul 18:27:36 18:32:30 66° 259° (WSW) 18:37:03 437.365/2234.400
NOAA 18 02 Jul 18:28:19 18:33:46 83° 254° (WSW) 18:39:20 137.9125
Cosmos 2499 02 Jul 18:28:36 18:36:47 58° 90° (E) 18:45:24 435.465 / 435.565
CUTE-I 02 Jul 18:30:04 18:35:25 87° 256° (WSW) 18:40:50 437.470
GOMX 1 02 Jul 18:38:15 18:42:44 72° 75° (ENE) 18:47:00 467.674
CUSAT 1 02 Jul 18:42:26 18:45:29 42° 266° (W) 18:48:05 437.405
NOAA 15 02 Jul 18:43:45 18:48:50 47° 261° (W) 18:53:54 137.62
HO-68 02 Jul 18:47:31 18:53:09 26° 59° (ENE) 18:58:49 435.675
CANX-2 02 Jul 19:14:53 19:18:12 22° 68° (ENE) 19:21:32 2200.000
DOVE 4 02 Jul 19:15:37 19:19:53 81° 77° (ENE) 19:24:03 437.250
SEEDS 02 Jul 19:29:42 19:32:49 20° 67° (ENE) 19:35:58 437.485
STRAND 1 02 Jul 19:32:09 19:36:35 28° 96° (E) 19:40:59 437.568
CUTE 1.7 + AOD 2 02 Jul 19:33:27 19:37:12 30° 70° (ENE) 19:40:59 437.475
CUBESAT XI-V 02 Jul 19:37:21 19:40:29 18° 295° (WNW) 19:43:34 437.345
CINEMA 3 02 Jul 19:38:03 19:41:53 38° 71° (ENE) 19:45:46 145.822/145.860
Cubesat XI-IV 02 Jul 19:38:49 19:42:52 22° 267° (W) 19:46:57 437.490
GONETS M04 02 Jul 19:45:54 19:53:45 37° 288° (WNW) 20:01:40
DANDE 02 Jul 19:47:49 19:51:17 25° 273° (W) 19:54:07 436.750
AO-85 02 Jul 19:48:56 19:53:23 26° 112° (ESE) 19:57:45 145.980
AAUSAT CUBESAT 2 02 Jul 19:55:29 19:58:41 21° 68° (ENE) 20:01:53 437.432
Cosmos 2499 02 Jul 20:23:01 20:30:22 32° 291° (WNW) 20:38:04 435.465 / 435.565
COMPASS 1 02 Jul 20:33:03 20:37:15 72° 76° (ENE) 20:41:28 437.405
HO-68 02 Jul 20:33:14 20:40:19 64° 257° (WSW) 20:47:28 435.675
RS-15 02 Jul 20:33:37 20:46:04 86° 58° (ENE) 20:58:20 29.354- 29.394
PRISM 02 Jul 20:36:02 20:38:34 16° 93° (E) 20:41:06 437.425
AUBIESAT-1 02 Jul 20:38:48 20:41:46 32° 66° (ENE) 20:44:49 437.475
CUBEBUG 2 02 Jul 20:40:22 20:44:28 56° 74° (ENE) 20:48:42 437.445
ZACube-1 02 Jul 20:46:40 20:50:21 29° 69° (ENE) 20:54:08 437.345
Oscar 11 02 Jul 20:47:15 20:51:08 33° 70° (ENE) 20:55:02 145.826/435.025
CANX-2 02 Jul 20:50:02 20:53:52 32° 264° (W) 20:57:44 2200.000
FUNcube-1 02 Jul 21:01:17 21:05:14 40° 72° (ENE) 21:09:18 145.935
DELFI C3 02 Jul 21:03:30 21:06:33 21° 68° (ENE) 21:09:37 145.870
SEEDS 02 Jul 21:04:24 21:08:18 34° 263° (W) 21:12:12 437.485
CUTE 1.7 + AOD 2 02 Jul 21:09:39 21:13:03 23° 266° (W) 21:16:27 437.475
STRAND 1 02 Jul 21:11:09 21:15:45 34° 292° (WNW) 21:20:20 437.568
CINEMA 3 02 Jul 21:16:34 21:19:13 16° 268° (W) 21:21:53 145.822/145.860
UWE-3 02 Jul 21:17:43 21:21:56 80° 257° (WSW) 21:26:18 435.000/436.395/437.385
HUMSAT D 02 Jul 21:20:10 21:22:47 16° 65° (ENE) 21:25:25 437.325/437.525
M-CUBED/EXP-1 PRIME 02 Jul 21:22:09 21:25:16 44° 255° (WSW) 21:28:28 437.505
AO-85 02 Jul 21:28:27 21:33:40 47° 307° (NW) 21:38:43 145.980
AAUSAT CUBESAT 2 02 Jul 21:30:14 21:33:58 31° 263° (W) 21:37:44 437.432
YUBILEINY 02 Jul 22:01:40 22:07:09 17° 61° (ENE) 22:12:35 435.215
PRISM 02 Jul 22:10:15 22:14:02 38° 289° (WNW) 22:17:48 437.425
AUBIESAT-1 02 Jul 22:15:00 22:16:27 12° 263° (W) 22:17:53 437.475
CUBEBUG 2 02 Jul 22:20:00 22:21:30 12° 271° (W) 22:23:00 437.445
ZACube-1 02 Jul 22:23:16 22:26:38 23° 266° (W) 22:30:06 437.345
Oscar 11 02 Jul 22:23:58 22:27:18 21° 266° (W) 22:30:40 145.826/435.025
ESTCUBE 1 02 Jul 22:26:17 22:29:13 17° 64° (ENE) 22:32:09 437.505/2401.250
DELFI C3 02 Jul 22:37:42 22:41:14 29° 263° (W) 22:44:48 145.870
FUNcube-1 02 Jul 22:38:54 22:41:40 17° 268° (W) 22:44:30 145.935
TIGRISAT 02 Jul 22:41:52 22:45:59 30° 96° (E) 22:50:05 435.000
CUBEBUG 1 02 Jul 22:45:06 22:47:56 17° 65° (ENE) 22:50:45 437.445
RS-15 02 Jul 22:47:47 22:57:03 26° 259° (W) 23:06:15 29.354- 29.394
UNISAT 6 02 Jul 22:48:28 22:52:49 37° 98° (E) 22:57:10 437.425
SO-50 02 Jul 22:49:20 22:53:06 23° 45° (NE) 22:56:47 436.795
HUMSAT D 02 Jul 22:54:02 22:58:01 43° 261° (W) 23:02:06 437.325/437.525
VELOX 1 02 Jul 23:04:54 23:08:32 26° 68° (ENE) 23:12:10 145.980
Cosmos 2491 02 Jul 23:13:34 23:20:02 24° 80° (E) 23:26:29 435.465 / 435.565
SPROUT 02 Jul 23:14:07 23:16:16 14° 64° (ENE) 23:18:25 437.525
AO-85 02 Jul 23:14:35 23:15:22 10° 327° (NNW) 23:16:09 145.980
UKube-1 02 Jul 23:20:27 23:23:53 24° 67° (ENE) 23:27:19 .
ANTELSAT 02 Jul 23:27:51 23:32:34 86° 284° (WNW) 23:37:17 437.575/2403.000
50 SAT 02 Jul 23:36:12 23:39:52 59° 75° (ENE) 23:43:33 437.505
NANOSAT C BR1 02 Jul 23:36:36 23:39:31 18° 93° (E) 23:42:24 145.865
QB50P1 02 Jul 23:42:06 23:45:25 22° 95° (E) 23:48:43 145.935-145.965
AISAT 02 Jul 23:45:27 23:49:50 75° 76° (ENE) 23:54:14 437.250
POPSAT HIP 1 02 Jul 23:45:41 23:49:07 23° 95° (E) 23:52:33 437.405
DX 1 02 Jul 23:48:29 23:52:45 59° 73° (ENE) 23:57:01 434.975-435.025
DUCHIFAT 1 02 Jul 23:54:15 23:57:51 26° 96° (E) 00:01:24 145.980
YUBILEINY 02 Jul 23:56:28 00:05:23 84° 83° (E) 00:14:14 435.215
QB50P2 02 Jul 23:58:54 00:02:50 35° 97° (E) 00:06:45 145.880/145.840
Cosmos 2504 02 Jul 23:59:25 00:07:03 31° 69° (ENE) 00:14:20 435.465 / 435.565
ESTCUBE 1 03 Jul 00:01:15 00:05:38 48° 261° (W) 00:10:03 437.505/2401.250
POLYITAN 1 03 Jul 00:01:31 00:05:29 36° 98° (E) 00:09:26 437.675
TISAT 1 03 Jul 00:16:08 00:18:45 16° 65° (ENE) 00:21:23 437.305
TIGRISAT 03 Jul 00:18:35 00:22:34 28° 292° (WNW) 00:26:33 435.000
CUBEBUG 1 03 Jul 00:19:45 00:23:53 43° 261° (W) 00:28:01 437.445
UNISAT 6 03 Jul 00:25:38 00:29:18 23° 293° (WNW) 00:32:58 437.425
SO-50 03 Jul 00:29:22 00:33:48 45° 244° (WSW) 00:38:04 436.795
BUGSAT 1 03 Jul 00:29:59 00:33:36 29° 97° (E) 00:37:14 437.445
VELOX 1 03 Jul 00:41:05 00:44:53 28° 264° (W) 00:48:43 145.980
SPROUT 03 Jul 00:47:36 00:51:45 54° 260° (W) 00:55:56 437.525
UKube-1 03 Jul 00:55:59 00:59:46 30° 263° (W) 01:03:35 .
Cosmos 2491 03 Jul 01:07:15 01:15:59 71° 280° (W) 01:24:44 435.465 / 435.565
PCSat 03 Jul 01:08:40 01:13:55 53° 113° (ESE) 01:19:12 145.827
NANOSAT C BR1 03 Jul 01:11:26 01:15:22 38° 289° (WNW) 01:19:19 145.865
BEESAT 3 03 Jul 01:11:57 01:15:32 36° 116° (ESE) 01:19:11 437.485
QB50P1 03 Jul 01:17:26 01:21:13 31° 290° (WNW) 01:24:59 145.935-145.965
Oscar 19 03 Jul 01:19:26 01:22:44 17° 92° (E) 01:26:01 437.125/150
POPSAT HIP 1 03 Jul 01:21:11 01:24:53 29° 291° (WNW) 01:28:36 437.405
SWISSCUBE 03 Jul 01:24:20 01:27:58 22° 65° (ENE) 01:31:38 437.505
DX 1 03 Jul 01:27:42 01:29:17 12° 269° (W) 01:30:54 434.975-435.025
DUCHIFAT 1 03 Jul 01:29:55 01:33:27 26° 291° (WNW) 01:36:59 145.980
QB50P2 03 Jul 01:35:16 01:38:24 20° 293° (WNW) 01:41:32 145.880/145.840
POLYITAN 1 03 Jul 01:37:55 01:41:02 20° 293° (WNW) 01:44:09 437.675
BEESAT 03 Jul 01:48:16 01:52:33 33° 69° (ENE) 01:56:50 436.000
JAS-2 03 Jul 01:48:20 01:53:50 90° 280° (W) 01:59:01 435.910
TISAT 1 03 Jul 01:50:08 01:54:04 41° 261° (W) 01:58:02 437.305
Cosmos 2504 03 Jul 01:52:19 02:00:56 59° 269° (W) 02:09:05 435.465 / 435.565
ITUPSAT 1 03 Jul 01:52:29 01:56:52 36° 69° (ENE) 02:01:15 437.325
YUBILEINY 03 Jul 01:55:14 02:01:00 20° 282° (WNW) 02:06:46 435.215
BEESAT 2 03 Jul 01:59:14 02:03:08 67° 120° (ESE) 02:07:06 435.950
BUGSAT 1 03 Jul 02:05:36 02:08:50 23° 292° (WNW) 02:12:06 437.445
Gurwin Techsat 1B 03 Jul 02:14:44 02:19:08 26° 95° (E) 02:23:29 435.225
O/OREOS (USA 219) 03 Jul 02:15:16 02:19:45 86° 287° (WNW) 02:24:15 437.305
